Date,TemperatureHighF,TemperatureAvgF,TemperatureLowF,DewpointHighF,DewpointAvgF,DewpointLowF,HumidityHigh,HumidityAvg,HumidityLow,PressureMaxIn,PressureMinIn,WindSpeedMaxMPH,WindSpeedAvgMPH,GustSpeedMaxMPH,PrecipitationSumIn
2013-1-1,62.5,56.1,44.6,61.0,54.4,43.0,97,94,89,30.09,29.89,6,2,12,1.19
2013-1-2,44.5,40.6,36.7,43.0,38.1,33.0,95,91,86,30.24,30.08,5,2,12,0.00
2013-1-3,49.0,38.4,33.2,33.0,29.9,28.0,87,73,46,30.39,30.23,7,1,10,0.00
2013-1-4,55.5,42.0,31.4,35.0,30.1,26.0,89,66,35,30.46,30.33,5,1,8,0.00
2013-1-5,49.9,42.8,37.7,42.0,37.1,34.0,94,81,59,30.38,30.22,5,1,6,0.06
2013-1-6,55.6,45.0,39.3,45.0,41.4,37.0,96,88,65,30.29,30.20,5,1,8,0.26
2013-1-7,58.7,44.1,32.9,41.0,37.2,32.0,96,79,46,30.33,30.17,3,1,7,0.00
2013-1-8,63.1,53.6,41.8,57.0,49.7,39.0,97,87,76,30.20,30.07,6,1,9,0.74
2013-1-9,66.7,62.0,56.6,66.0,61.3,56.0,98,97,96,30.17,30.07,5,1,9,2.29
2013-1-10,68.6,65.1,61.6,67.0,64.0,61.0,97,96,93,30.14,29.90,7,2,12,1.09
2013-1-11,68.7,65.7,62.8,68.0,64.6,62.0,98,96,92,30.07,29.96,4,1,7,0.24
2013-1-12,75.8,70.4,67.9,69.0,67.4,66.0,98,90,77,30.00,29.86,8,4,13,0.00
2013-1-13,72.8,61.1,42.8,70.0,58.8,41.0,95,92,81,30.09,29.79,9,3,17,0.71
2013-1-14,42.6,39.0,33.9,42.0,37.9,33.0,96,95,94,30.17,30.04,9,2,11,1.45
2013-1-15,40.7,38.2,35.2,40.0,37.4,34.0,97,96,95,30.10,29.97,6,1,8,1.18
2013-1-16,35.5,34.3,33.3,35.0,33.3,32.0,96,96,95,30.13,30.01,7,2,10,0.19
2013-1-17,51.6,39.4,32.6,37.0,34.3,31.0,96,83,54,30.42,30.12,13,2,15,0.02
2013-1-18,58.6,41.8,31.3,37.0,32.6,27.0,96,74,30,30.53,30.38,6,1,11,0.00
2013-1-19,61.3,43.5,29.7,46.0,37.8,29.0,96,82,54,30.38,30.22,5,0,9,0.00
2013-1-20,66.2,47.8,33.9,45.0,38.6,33.0,97,75,34,30.25,30.12,4,0,6,0.00
2013-1-21,64.5,49.2,37.4,47.0,41.2,36.0,94,76,48,30.21,30.12,4,0,7,0.00
2013-1-22,63.1,46.4,37.2,42.0,36.2,29.0,88,70,44,30.35,30.20,5,1,8,0.00
2013-1-23,70.5,55.5,42.6,50.0,44.9,39.0,91,71,41,30.36,30.23,6,1,9,0.00
2013-1-24,72.6,60.1,50.8,60.0,54.5,48.0,93,82,61,30.30,30.17,9,1,12,0.00
2013-1-25,75.3,62.9,52.9,59.0,55.6,51.0,95,78,52,30.20,30.07,11,1,17,0.00
2013-1-26,72.4,60.9,54.0,61.0,57.1,53.0,97,88,65,30.22,30.14,3,0,5,0.00
2013-1-27,73.3,60.7,52.6,60.0,55.8,51.0,97,85,58,30.25,30.15,8,2,10,0.00
2013-1-28,75.0,64.6,58.1,65.0,60.6,56.0,95,87,62,30.22,30.07,5,2,10,0.00
2013-1-29,79.0,70.3,65.1,68.0,65.9,63.0,95,86,64,30.07,29.70,13,4,19,0.00
2013-1-30,71.9,54.3,35.6,68.0,45.8,31.0,94,75,44,30.12,29.60,11,3,21,0.79
2013-1-31,60.3,45.2,31.6,35.0,29.7,24.0,91,60,27,30.30,30.13,6,1,9,0.00